N711KZ KMKL-KMKL

Flight info

Callsign N711KZ
Flight time 0h 23m
Altitude VFR/055
Route
Aircraft C172/L-DOV/C

Departure

Time 2026-04-18 02:20
Airport McKellar-Sipes Regional Airport (KMKL)

Arrival

Time 2026-04-18 02:44
Airport McKellar-Sipes Regional Airport (KMKL)
Time Latitude Longitude Altitude Speed Heading
2026-04-18 02:10 35.60219 -88.92000 415 ft 0 kts 148°
2026-04-18 02:15 35.60218 -88.91999 415 ft 2 kts 147°
2026-04-18 02:15 35.60204 -88.91935 416 ft 14 kts 96°
2026-04-18 02:15 35.60164 -88.91948 414 ft 14 kts 346°
2026-04-18 02:15 35.60186 -88.91893 416 ft 0 kts 97°
2026-04-18 02:16 35.60185 -88.91886 416 ft 4 kts 115°
2026-04-18 02:16 35.60129 -88.91858 418 ft 15 kts 181°
2026-04-18 02:16 35.60028 -88.91860 412 ft 14 kts 180°
2026-04-18 02:16 35.59935 -88.91859 422 ft 13 kts 167°
2026-04-18 02:17 35.59881 -88.91782 424 ft 12 kts 112°
2026-04-18 02:17 35.59834 -88.91701 425 ft 12 kts 176°
2026-04-18 02:17 35.59754 -88.91736 426 ft 12 kts 202°
2026-04-18 02:17 35.59675 -88.91775 428 ft 13 kts 202°
2026-04-18 02:18 35.59591 -88.91817 429 ft 13 kts 201°
2026-04-18 02:18 35.59503 -88.91861 426 ft 14 kts 202°
2026-04-18 02:18 35.59410 -88.91908 430 ft 15 kts 202°
2026-04-18 02:18 35.59313 -88.91955 433 ft 15 kts 186°
2026-04-18 02:19 35.59286 -88.91865 420 ft 15 kts 43°
2026-04-18 02:19 35.59402 -88.91795 433 ft 44 kts 25°
2026-04-18 02:19 35.59829 -88.91580 424 ft 84 kts 15°
2026-04-18 02:19 35.60436 -88.91277 490 ft 100 kts 28°
2026-04-18 02:20 35.61027 -88.90892 745 ft 93 kts 32°
2026-04-18 02:20 35.61602 -88.90501 863 ft 101 kts 27°
2026-04-18 02:20 35.62206 -88.90184 1110 ft 94 kts 21°
2026-04-18 02:20 35.62836 -88.89975 1319 ft 88 kts 13°
2026-04-18 02:21 35.63499 -88.89821 1417 ft 98 kts
2026-04-18 02:21 35.64200 -88.89696 1603 ft 105 kts
2026-04-18 02:21 35.64938 -88.89558 1784 ft 107 kts
2026-04-18 02:21 35.65669 -88.89432 1981 ft 106 kts 359°
2026-04-18 02:22 35.66388 -88.89349 2175 ft 103 kts 357°
2026-04-18 02:22 35.67095 -88.89304 2355 ft 105 kts 355°
2026-04-18 02:22 35.67817 -88.89311 2527 ft 105 kts 347°
2026-04-18 02:22 35.68551 -88.89364 2679 ft 106 kts 342°
2026-04-18 02:23 35.69286 -88.89500 2827 ft 103 kts 334°
2026-04-18 02:23 35.69976 -88.89713 2960 ft 104 kts 330°
2026-04-18 02:23 35.70651 -88.90032 3100 ft 100 kts 320°
2026-04-18 02:23 35.71274 -88.90389 3239 ft 100 kts 317°
2026-04-18 02:24 35.71832 -88.90822 3399 ft 90 kts 300°
2026-04-18 02:24 35.72262 -88.91369 3509 ft 89 kts 294°
2026-04-18 02:24 35.72677 -88.91915 3686 ft 88 kts 296°
2026-04-18 02:24 35.73107 -88.92479 3797 ft 93 kts 293°
2026-04-18 02:25 35.73505 -88.93089 3906 ft 99 kts 297°
2026-04-18 02:25 35.74264 -88.93155 3897 ft 130 kts 51°
2026-04-18 02:25 35.74174 -88.92432 3940 ft 79 kts 185°
2026-04-18 02:25 35.74010 -88.92914 4176 ft 90 kts 281°
2026-04-18 02:26 35.74536 -88.93493 4292 ft 105 kts 309°
2026-04-18 02:26 35.75111 -88.94013 4447 ft 102 kts 308°
2026-04-18 02:26 35.75663 -88.94544 4573 ft 100 kts 306°
2026-04-18 02:26 35.76325 -88.94883 4648 ft 123 kts
2026-04-18 02:27 35.77119 -88.94454 4721 ft 129 kts 30°
2026-04-18 02:27 35.77888 -88.93882 4832 ft 127 kts 36°
2026-04-18 02:27 35.78615 -88.93295 4967 ft 124 kts 27°
2026-04-18 02:27 35.79424 -88.92872 5041 ft 128 kts 23°
2026-04-18 02:28 35.80262 -88.92361 5043 ft 138 kts 39°
2026-04-18 02:28 35.80837 -88.91489 5159 ft 130 kts 70°
2026-04-18 02:28 35.81275 -88.90484 5228 ft 133 kts 72°
2026-04-18 02:28 35.81695 -88.89472 5275 ft 136 kts 73°
2026-04-18 02:29 35.82094 -88.88410 5350 ft 135 kts 77°
2026-04-18 02:29 35.82109 -88.87404 5338 ft 108 kts 148°
2026-04-18 02:29 35.81629 -88.87629 5295 ft 109 kts 261°
2026-04-18 02:29 35.82372 -88.88085 5273 ft 156 kts 22°
2026-04-18 02:30 35.82752 -88.87045 5300 ft 128 kts 111°
2026-04-18 02:30 35.82626 -88.86032 5433 ft 121 kts 116°
2026-04-18 02:30 35.82439 -88.85007 5459 ft 123 kts 118°
2026-04-18 02:30 35.82215 -88.84004 5512 ft 118 kts 124°
2026-04-18 02:31 35.81925 -88.83063 5528 ft 117 kts 129°
2026-04-18 02:31 35.81565 -88.82171 5530 ft 117 kts 133°
2026-04-18 02:31 35.81269 -88.81552 5522 ft 115 kts 139°
2026-04-18 02:31 35.80837 -88.80649 5391 ft 129 kts 127°
2026-04-18 02:32 35.80555 -88.79594 5385 ft 130 kts 115°
2026-04-18 02:32 35.80570 -88.78529 5452 ft 140 kts 85°
2026-04-18 02:32 35.81108 -88.77633 5476 ft 150 kts 33°
2026-04-18 02:32 35.82091 -88.77417 5502 ft 142 kts 338°
2026-04-18 02:33 35.82771 -88.78143 5092 ft 136 kts 275°
2026-04-18 02:33 35.83118 -88.79287 4757 ft 142 kts 281°
2026-04-18 02:33 35.83426 -88.80456 4297 ft 143 kts 273°
2026-04-18 02:33 35.83551 -88.81699 3718 ft 142 kts 260°
2026-04-18 02:34 35.83363 -88.82821 3191 ft 134 kts 240°
2026-04-18 02:34 35.83001 -88.83863 2749 ft 127 kts 238°
2026-04-18 02:34 35.82527 -88.84809 2162 ft 131 kts 225°
2026-04-18 02:34 35.81952 -88.85563 1753 ft 109 kts 223°
2026-04-18 02:35 35.81335 -88.86201 1062 ft 119 kts 220°
2026-04-18 02:35 35.80723 -88.86906 580 ft 122 kts 221°
2026-04-18 02:35 35.80137 -88.87597 465 ft 114 kts 222°
2026-04-18 02:35 35.79563 -88.88231 645 ft 105 kts 209°
2026-04-18 02:36 35.78867 -88.88398 768 ft 105 kts 172°
2026-04-18 02:36 35.78172 -88.88174 937 ft 102 kts 163°
2026-04-18 02:36 35.77499 -88.87878 1050 ft 102 kts 169°
2026-04-18 02:36 35.76798 -88.87708 1147 ft 101 kts 178°
2026-04-18 02:37 35.76132 -88.87474 1276 ft 99 kts 167°
2026-04-18 02:37 35.75545 -88.87182 1506 ft 88 kts 166°
2026-04-18 02:37 35.74942 -88.86911 1546 ft 89 kts 176°
2026-04-18 02:37 35.74353 -88.86748 1651 ft 88 kts 178°
2026-04-18 02:38 35.73779 -88.86640 1826 ft 83 kts 182°
2026-04-18 02:38 35.73203 -88.86548 1985 ft 82 kts 179°
2026-04-18 02:38 35.72615 -88.86438 2068 ft 87 kts 181°
2026-04-18 02:38 35.72015 -88.86348 2201 ft 85 kts 183°
2026-04-18 02:39 35.71419 -88.86301 2298 ft 87 kts 186°
2026-04-18 02:39 35.70799 -88.86361 2321 ft 92 kts 193°
2026-04-18 02:39 35.70174 -88.86549 2359 ft 93 kts 199°
2026-04-18 02:39 35.69549 -88.86802 2369 ft 96 kts 202°
2026-04-18 02:40 35.68926 -88.87084 2374 ft 95 kts 202°
2026-04-18 02:40 35.68290 -88.87355 2328 ft 96 kts 203°
2026-04-18 02:40 35.67666 -88.87682 2271 ft 99 kts 205°
2026-04-18 02:40 35.67008 -88.87957 2215 ft 103 kts 200°
2026-04-18 02:41 35.66325 -88.88282 2094 ft 99 kts 205°
2026-04-18 02:41 35.65736 -88.88588 1987 ft 86 kts 205°
2026-04-18 02:41 35.65202 -88.88885 1802 ft 86 kts 205°
2026-04-18 02:41 35.64650 -88.89236 1598 ft 86 kts 202°
2026-04-18 02:42 35.64095 -88.89465 1435 ft 86 kts 200°
2026-04-18 02:42 35.63526 -88.89730 1300 ft 89 kts 204°
2026-04-18 02:42 35.62942 -88.90031 1150 ft 95 kts 202°
2026-04-18 02:42 35.62322 -88.90339 1015 ft 98 kts 204°
2026-04-18 02:43 35.61679 -88.90661 817 ft 103 kts 201°
2026-04-18 02:43 35.61015 -88.91001 619 ft 104 kts 203°
2026-04-18 02:43 35.60369 -88.91314 463 ft 94 kts 202°
2026-04-18 02:43 35.59840 -88.91592 424 ft 58 kts 202°
2026-04-18 02:44 35.59540 -88.91739 430 ft 36 kts 197°
2026-04-18 02:44 35.59354 -88.91829 434 ft 26 kts 197°
2026-04-18 02:44 35.59273 -88.91914 434 ft 11 kts 294°
2026-04-18 02:44 35.59339 -88.91943 433 ft 13 kts 22°
2026-04-18 02:45 35.59433 -88.91895 432 ft 16 kts 21°
2026-04-18 02:45 35.59542 -88.91839 425 ft 18 kts 22°
2026-04-18 02:45 35.59669 -88.91777 426 ft 21 kts 20°
2026-04-18 02:45 35.59808 -88.91708 425 ft 23 kts 21°
2026-04-18 02:46 35.59892 -88.91814 422 ft 20 kts 297°
2026-04-18 02:46 35.60006 -88.91933 420 ft 23 kts 322°
2026-04-18 02:46 35.60139 -88.92039 415 ft 24 kts
2026-04-18 02:46 35.60216 -88.91996 413 ft 2 kts 356°